Location: Meadowbank Aerodrome
(65.0250°N, 96.0705°W)
Time: 03:57:54
(UTC-05:00)

Cosmos 2221 - Visible Passes

Search period start: 22 April 2018 00:00
Search period end: 02 May 2018 00:00
Orbit: 592 x 618 km, 82.5° (Epoch: 21 April)

Date Brightness Start Highest point End Pass type
(mag) Time Alt. Az. Time Alt. Az. Time Alt. Az.
22 Apr 6.1 03:52:17 10° N 03:54:23 13° NNE 03:56:30 10° ENE visible
22 Apr 5.7 23:05:53 10° W 23:08:48 17° NW 23:11:42 10° N visible
23 Apr 5.9 04:05:02 10° N 04:07:41 16° NE 04:10:20 10° ENE visible
23 Apr 5.9 23:19:38 10° WNW 23:22:04 15° NW 23:24:30 10° N visible
24 Apr 6.2 23:33:32 10° NW 23:35:23 12° NNW 23:37:14 10° N visible
25 Apr 6.6 02:54:14 10° NNE 02:54:56 10° NNE 02:55:37 10° NNE visible
25 Apr 6.5 23:47:40 10° NW 23:48:43 11° NNW 23:49:48 10° N visible
26 Apr 6.3 03:06:37 10° N 03:08:17 12° NNE 03:09:57 10° NE visible
27 Apr 6.0 03:19:18 10° N 03:21:37 14° NE 03:23:54 10° ENE visible
28 Apr 5.8 03:32:05 10° N 03:34:53 17° NE 03:37:43 10° E visible
29 Apr 6.3 23:00:54 10° NW 23:02:36 12° NNW 23:04:18 10° N visible
30 Apr 6.3 02:21:04 10° N 02:22:10 11° NNE 02:23:15 10° NE visible
30 Apr 6.5 23:15:08 10° NW 23:15:57 10° NNW 23:16:47 10° NNW visible
01 May 6.0 02:33:37 10° N 02:35:30 12° NNE 02:37:23 10° NE visible
